User: anonymous   Login
Location: Arrakis Observatory
(44.1122°N, 95.7153°W)
Time: 15:48:39
(UTC-06:00)
Language:

Iridium 35 - Orbit

View from above orbital plane
View from above orbital plane
View from above satellite
View from above satellite

Ground track
Ground track

The orbit data is extracted from the following two-line orbital elements,

1 24966U 97056B   16038.49957429  .00000125  00000-0  37399-4 0  9994
2 24966  86.4007 165.9073 0001997  97.1436 262.9987 14.34213796961482
Epoch (UTC): 07 February 2016 11:59:23
Eccentricity: 0.0001997
inclination: 86.4007°
perigee height: 776 km
apogee height: 779 km
right ascension of ascending node: 165.9073°
argument of perigee: 97.1436°
revolutions per day: 14.34213796
mean anomaly at epoch: 262.9987°
orbit number at epoch: 96148

The dashed part of the orbit path shows where the satellite is in the earth's shadow,  

DLR